Overview Statistics Trail Chart Weather Telemetry Raw packets
 

This is the latest recevied weather packets stored in our database for station/object CE3TDM-10. If no packets are shown the sender has not sent any weather packets the latest 10 day(s).

<< 7 8 9 10 11 12 13 >>
Time Temp. Humidity Pressure Rain* Wind** Luminosity Snow
1788361321 26.11° C 36% 922.7 hPa - - - -
1788360426 25° C 36% 922.7 hPa - - - -
1788359521 24.44° C 36% 922.8 hPa - - - -
1788358684 24.44° C 36% 922.7 hPa - - - -
1788358621 24.44° C 36% 922.7 hPa - - - -
1788357721 23.89° C 36% 922.6 hPa - - - -
1788356821 23.89° C 36% 922.7 hPa - - - -
1788355921 23.33° C 36% 922.8 hPa - - - -
1788355021 23.33° C 36% 923 hPa - - - -
1788354121 23.33° C 36% 923.1 hPa - - - -
1788353228 23.33° C 36% 923.2 hPa - - - -
1788352320 23.33° C 36% 922.9 hPa - - - -
1788351420 22.78° C 36% 922.6 hPa - - - -
1788350523 22.78° C 36% 922.3 hPa - - - -
1788349620 22.78° C 36% 922.1 hPa - - - -
1788347820 22.78° C 35% 921.5 hPa - - - -
1788346920 23.33° C 35% 921.6 hPa - - - -
1788346027 23.33° C 35% 921.4 hPa - - - -
1788345120 24.44° C 34% 921.5 hPa - - - -
1788344220 25° C 34% 921.4 hPa - - - -
1788342420 25° C 34% 921.3 hPa - - - -
1788340619 25° C 34% 921.3 hPa - - - -
1788338819 25° C 33% 921.4 hPa - - - -
1788337019 25.56° C 33% 921.7 hPa - - - -
1788335219 25.56° C 34% 921.8 hPa - - - -

* Rain since midnight (hover to see other rain measurements)
** Current wind speed in m/s (hover to see current wind gust speed)